Regional Weather Roundup
Issued by NWS Newport/Morehead, NC

Current Version | Previous Version | Graphics & Text | Print | Product List | Glossary Off
Versions: 1 2 3 4 5 6 7 8 9 10 11 12 13 14 15 16 17 18 19 20 21 22 23 24 25 26 27 28 29 30 31 32 33 34 35 36 37 38 39 40 41 42 43 44 45 46 47 48 49 50

000
ASUS42 KMHX 051423
RWRMHX
WEATHER ROUNDUP FOR EASTERN NORTH CAROLINA
NATIONAL WEATHER SERVICE NEWPORT/MOREHEAD CITY NC
900 AM EST THU MAR 05 2015

NOTE: "FAIR" INDICATES FEW OR NO CLOUDS BELOW 12,000 FEET
WITH NO SIGNIFICANT WEATHER AND/OR OBSTRUCTIONS TO VISIBILITY

NCZ015>017-031-032-045>047-102-103-051500-
NORTH COAST

CITY           SKY/WX    TMP DP  RH WIND       PRES   REMARKS
EDENTON        RAIN      46  45  97 NE8       30.00R
ELIZABETH CITY LGT RAIN  43  39  87 NE21      30.03R FOG
KITTY HAWK     CLOUDY    40  40 100 N10G18    29.98S FOG
MANTEO         CLOUDY    41  41 100 N17       30.00R FOG

$$

NCZ045>047-081-094-103-104-051500-
CENTRAL COAST

CITY           SKY/WX    TMP DP  RH WIND       PRES   REMARKS
FRISCO         FOG       59  59 100 SW15G22   29.98S VSB 1/4
SWANQUARTER      N/A     63 N/A N/A SW10G17   29.91S

$$

NCZ095-097-098-100-101-051500-
SOUTHERN COAST

CITY           SKY/WX    TMP DP  RH WIND       PRES   REMARKS
BEAUFORT       FOG       59  59 100 SW15      29.98F VSB 1/2
CEDAR ISLAND     N/A     68 N/A N/A S22       30.00S
JACKSONVILLE   SUNNY     71  61  70 SW10G24   29.97R
PINEY ISLAND     N/A    N/A N/A N/A MISG      29.96F
WILMINGTON     MOSUNNY   69  63  81 SW17      29.98R


$$

NCZ011>013-027>030-043-044-078>080-089-090>093-098-051500-
COASTAL PLAIN

CITY           SKY/WX    TMP DP  RH WIND       PRES   REMARKS
AHOSKIE        LGT RAIN  43  42  95 NE12G17   30.00S
CLINTON        CLOUDY    70  64  79 SW9G21    29.94F
ELIZABETHTOWN  MOSUNNY   70  62  75 S13       29.96S
GOLDSBORO      PTSUNNY   70  69  98 SW13G22   29.91R
GREENVILLE     MOSUNNY   70  63  78 SW9       29.95S
HAVELOCK       MOSUNNY   69  61  75 SW22G35   29.98R
KENANSVILLE    MOSUNNY   69  61  74 SW9       29.95F
KINSTON        MOSUNNY   72  63  73 SW14G23   29.94R
NEW BERN       SUNNY     71  61  70 SW13      29.96R
RICHLANDS      SUNNY     72  61  68 SW16G23   29.97S
ROCKY MOUNT    CLOUDY    64  60  87 N14       29.93R
WASHINGTON     MOSUNNY   69  62  78 SW9       29.94S
WHITEVILLE     SUNNY     68  62  80 SW10      29.98R

$$

AMZ130-135-150-152-154-156-158-170-250-252-270-ANZ085-086-088-633-658-670-051500-
MARINE OBSERVATIONS

STATION/POSITION TIME  TEMP    WIND        PRES    WAVE   SWELL
                       AIR SEA DIR/SP/G            HT/PER HT/PER
                 (UTC) (F)     (DEG/KT/KT) (MB)    (FT/S) (FT/S)
CHESAPEAKE LIGHT 1400   37      20/ 22/ 24 1017.1
64 E VA BEACH    1350   47 51  360/ 19/ 23 1014.7    6/ 8   2/ 8
DUCK             1400   38 36   10/ 15/ 21 1015.1
2 E DUCK         1311      35                N/A     3/10   2/11
10 NE DUCK       1322      37                N/A     4/ 7   2/11
OREGON INLET     1400      50  360/ 10/ 15 1015.3
HATTERAS CG      1400   61 49  230/ 12/ 18 1015.6
CAPE LOOKOUT     1400   61     210/ 13/ 20 1015.1
BEAUFORT LAB     1400   57 46  210/ 10/ 13 1014.2
27 SE WRIGHTSVLE NOT AVBL
5 SE WRIGHTSVLE  NOT AVBL
225 S CAPE HAT   1350   73 73  210/ 19/ 23 1021.1    6/ 6   3/10
41 SE CHARLESTON 1350   69 68  200/ 19/ 21 1016.3    6/ 7   3/10

$$


USA.gov is the U.S. government's official web portal to all federal, state and local government web resources and services.